"2009-12-23 00:00:00",1526684,5.941,42.86,6.754,1.313,4.542,100.3736,0.253,1.571,56.8,0,109.6,13.6,1.01,4.9
"2009-12-23 00:00:30",1526685,6.577,48,5.337,1.048,5.354,100.3736,0.253,1.594,55.86,0,109.6,13.6,1.01,10.0
"2009-12-23 00:01:00",1526686,6.8,50.58,5.02,0.849,5.615,100.3736,0.253,1.57,55.14,0,109.7,13.6,1.01,12.6
"2009-12-23 00:01:30",1526687,6.537,50.47,5.511,1.027,5.526,100.3734,0.252,1.533,55.2,0,109.6,13.6,1.01,12.5
"2009-12-23 00:02:00",1526688,6.128,48.41,5.826,1.216,4.289,100.3722,0.25,1.457,55.08,0,109.6,13.6,1.00,10.4
"2009-12-23 00:02:30",1526689,6.052,47.32,6.055,1.168,4.265,100.3731,0.252,1.432,55.31,0,109.6,13.6,1.00,9.3
"2009-12-23 00:03:00",1526690,6.764,48.35,5.727,0.924,5.602,100.3734,0.252,1.491,55.74,0,109.6,13.6,1.01,10.3
"2009-12-23 00:03:30",1526691,6.851,49.71,2.034,0.832,6.092,100.3734,0.252,1.577,55.94,0,109.6,13.6,1.01,11.7
"2009-12-23 00:04:00",1526692,6.772,49.41,4.432,0.865,5.739,100.3736,0.253,1.521,56,0,109.6,13.6,1.01,11.4
"2009-12-23 00:04:30",1526693,6.589,47.38,5.514,0.926,5.444,100.3736,0.253,1.511,56.54,0,109.6,13.6,1.01,9.4
"2009-12-23 00:05:00",1526694,6.284,44.65,5.724,1.023,4.74,100.3736,0.253,1.449,56.57,0,109.6,13.6,1.01,6.7
"2009-12-23 00:05:30",1526695,6.156,43.57,5.661,1.067,4.861,100.3736,0.253,1.435,56.72,0,109.6,13.6,1.01,5.6
"2009-12-23 00:06:00",1526696,6.113,43.44,5.874,1.16,4.855,100.3736,0.253,1.514,57.03,0,109.6,13.6,1.01,5.4
"2009-12-23 00:06:30",1526697,6.174,44.99,4.757,1.021,5.86,100.3736,0.253,1.569,57.2,0,109.6,13.6,1.01,7.0
"2009-12-23 00:07:00",1526698,6.503,46.11,4.649,0.701,5.843,100.3736,0.253,1.612,57.32,0,109.6,13.6,1.01,8.1
"2009-12-23 00:07:30",1526699,5.788,43.29,6.769,1.244,4.855,100.3736,0.253,1.485,57.28,0,109.6,13.6,1.01,5.3
"2009-12-23 00:08:00",1526700,5.343,40.5,6.148,1.166,4.259,100.3736,0.253,1.507,57.11,0,109.6,13.6,1.01,2.5
"2009-12-23 00:08:30",1526701,3.88,32.09,4.622,0.978,2.128,100.3736,0.253,1.334,56.97,0,109.6,13.6,1.01,354.1
"2009-12-23 00:09:00",1526702,5.253,38.48,5.223,1.036,5.007,100.3739,0.254,1.512,57.25,0,109.6,13.6,1.01,0.5
"2009-12-23 00:09:30",1526703,4.968,37.59,6.343,1.11,4.63,100.3742,0.255,1.534,57.21,0,109.6,13.61,1.01,359.6
"2009-12-23 00:10:00",1526704,5.421,40.8,6.055,1.181,4.871,100.3739,0.254,1.56,57.14,0,109.6,13.61,1.01,2.8
"2009-12-23 00:10:30",1526705,5.911,43.41,5.429,1.089,4.668,100.3736,0.253,1.492,57.01,0,109.6,13.61,1.01,5.4
"2009-12-23 00:11:00",1526706,5.758,43.16,6.89,1.239,3.921,100.3736,0.253,1.381,56.9,0,109.6,13.61,1.01,5.2
"2009-12-23 00:11:30",1526707,5.624,42.51,6.204,1.192,4.336,100.3739,0.254,1.425,56.76,0,109.6,13.61,1.01,4.5
"2009-12-23 00:12:00",1526708,5.998,45.36,6.665,1.155,5.116,100.3742,0.255,1.585,56.62,0,109.6,13.61,1.01,7.4
"2009-12-23 00:12:30",1526709,6.515,47.95,4.002,0.859,6.187,100.3742,0.255,1.568,56.71,0,109.6,13.61,1.01,10.0
"2009-12-23 00:13:00",1526710,6.587,47.2,5.193,0.806,5.648,100.3782,0.265,1.522,56.75,0,109.6,13.61,1.02,9.2
"2009-12-23 00:13:30",1526711,5.653,43.55,6.488,1.168,4.666,100.3833,0.278,1.562,56.76,0,109.6,13.6,1.03,5.5
"2009-12-23 00:14:00",1526712,4.813,38.9,5.918,1.099,3.582,100.3867,0.286,1.499,56.53,0,109.6,13.6,1.04,0.9
"2009-12-23 00:14:30",1526713,4.928,38.23,6.38,1.325,3.544,100.3901,0.295,1.365,56.34,0,109.6,13.6,1.05,0.2
"2009-12-23 00:15:00",1526714,5.048,39.78,5.28,1.15,5.488,100.3895,0.294,1.594,56.58,0,109.6,13.6,1.05,1.8
"2009-12-23 00:15:30",1526715,5.273,41.77,3.73,0.807,6.054,100.3918,0.299,1.592,56.46,0,109.6,13.6,1.05,3.8
"2009-12-23 00:16:00",1526716,4.911,37.7,5.868,1.077,4.59,100.3929,0.302,1.513,56.41,0,109.6,13.6,1.06,359.7
"2009-12-23 00:16:30",1526717,4.517,34.55,6.311,1.208,3.579,100.3918,0.299,1.402,56.5,0,109.6,13.6,1.05,356.5
"2009-12-23 00:17:00",1526718,3.521,29.45,3.18,0.765,1.545,100.3898,0.294,1.406,56.45,0,109.6,13.6,1.05,351.5
"2009-12-23 00:17:30",1526719,4.835,38.12,6.389,1.167,4.509,100.3861,0.285,1.5,56.24,0,109.6,13.6,1.04,0.1
"2009-12-23 00:18:00",1526720,5.435,41.4,3.489,0.765,5.98,100.3818,0.274,1.595,56.3,0,109.6,13.6,1.03,3.4
"2009-12-23 00:18:30",1526721,5.424,39.62,5.102,0.935,5.149,100.3756,0.258,1.594,56.48,0,109.6,13.61,1.01,1.6
"2009-12-23 00:19:00",1526722,5.225,38.73,5.599,1.08,4.3,100.3739,0.254,1.558,56.91,0,109.6,13.61,1.01,0.7
"2009-12-23 00:19:30",1526723,5.379,38.73,5.833,1.126,4.528,100.3736,0.253,1.512,57.26,0,109.6,13.61,1.01,0.7
"2009-12-23 00:20:00",1526724,4.092,33.11,5.643,1.177,2.278,100.3736,0.253,1.325,57.31,0,109.6,13.61,1.01,355.1
"2009-12-23 00:20:30",1526725,4.654,36.87,6.019,1.17,4.192,100.3736,0.253,1.531,57.73,0,109.6,13.61,1.01,358.9
"2009-12-23 00:21:00",1526726,4.779,38.69,5.833,1.167,4.354,100.3728,0.251,1.55,58.21,0,109.6,13.61,1.00,0.7
"2009-12-23 00:21:30",1526727,5.886,43.45,4.329,1.005,5.193,100.362,0.224,1.548,58.59,0,109.6,13.61,0.98,5.5
"2009-12-23 00:22:00",1526728,5.896,41.79,6.439,1.159,4.626,100.3538,0.203,1.496,58.83,0,109.6,13.61,0.96,3.8
"2009-12-23 00:22:30",1526729,6.873,46.7,4.104,0.854,5.576,100.3428,0.174,1.521,59.08,0,109.6,13.61,0.93,8.7
"2009-12-23 00:23:00",1526730,5.815,39.99,5.553,1.169,3.001,100.3397,0.166,1.352,59.28,0,109.6,13.61,0.92,2.0
"2009-12-23 00:23:30",1526731,6.592,44.77,5.761,1.096,5.049,100.3397,0.166,1.452,59.74,0,109.6,13.61,0.92,6.8
"2009-12-23 00:24:00",1526732,6.756,44.21,5.58,0.926,5.202,100.3397,0.166,1.495,59.95,0,109.6,13.61,0.92,6.2
"2009-12-23 00:24:30",1526733,6.975,46.32,3.754,0.863,5.736,100.3397,0.166,1.527,59.96,0,109.6,13.61,0.92,8.3
"2009-12-23 00:25:00",1526734,6.863,45.43,5.497,0.99,5.08,100.3374,0.161,1.434,59.72,0,109.6,13.61,0.91,7.4
"2009-12-23 00:25:30",1526735,6.087,43.23,6.106,1.195,4.051,100.3258,0.131,1.452,59.82,0,109.6,13.61,0.88,5.2
"2009-12-23 00:26:00",1526736,6.226,48.2,5.656,1.19,4.043,100.3224,0.122,1.319,60.15,0,109.6,13.61,0.87,10.2
"2009-12-23 00:26:30",1526737,6.285,49.57,6.102,1.146,4.689,100.3159,0.106,1.431,60.98,0,109.6,13.61,0.86,11.6
"2009-12-23 00:27:00",1526738,6.544,49.08,4.405,1.001,5.286,100.3114,0.094,1.422,61.39,0,109.6,13.61,0.85,11.1
"2009-12-23 00:27:30",1526739,6.601,47.35,4.574,0.905,5.459,100.3057,0.08,1.49,61.44,0,109.6,13.61,0.83,9.3
"2009-12-23 00:28:00",1526740,6.454,45.14,6.079,1.063,4.941,100.3063,0.081,1.41,61.45,0,109.6,13.61,0.83,7.1
"2009-12-23 00:28:30",1526741,6.987,48.22,4.295,0.748,5.189,100.3068,0.083,1.327,61.47,0,109.6,13.61,0.83,10.2
"2009-12-23 00:29:00",1526742,5.694,43.27,6.157,1.133,3.105,100.3068,0.083,1.262,61.65,0,109.6,13.61,0.83,5.3
"2009-12-23 00:29:30",1526743,6.631,48.31,5.969,1.148,4.521,100.3063,0.081,1.386,62.04,0,109.6,13.61,0.83,10.3
"2009-12-23 00:30:00",1526744,7.177,53.28,2.59,0.749,5.92,100.3068,0.083,1.456,62.27,0,109.6,13.6,0.83,15.3
"2009-12-23 00:30:30",1526745,7.299,53.87,3.171,0.657,6.04,100.3071,0.083,1.434,62.32,0,109.6,13.61,0.84,15.9
"2009-12-23 00:31:00",1526746,7.078,54.79,4.605,0.833,5.83,100.306,0.081,1.407,62.59,0,109.6,13.6,0.83,16.8
"2009-12-23 00:31:30",1526747,6.597,53.4,6.197,1.022,5.106,100.304,0.076,1.393,63.13,0,109.6,13.6,0.83,15.4
"2009-12-23 00:32:00",1526748,6.19,50.22,5.541,1.18,3.544,100.304,0.076,1.199,63.24,0,109.6,13.6,0.83,12.2
"2009-12-23 00:32:30",1526749,6.533,53.38,6.054,1.13,4.425,100.3003,0.066,1.338,63.74,0,109.6,13.6,0.82,15.4
"2009-12-23 00:33:00",1526750,7.168,55.25,4.576,0.922,5.725,100.2955,0.054,1.414,64.13,0,109.6,13.6,0.81,17.2
"2009-12-23 00:33:30",1526751,7.544,56.08,3.317,0.675,5.93,100.291,0.042,1.407,64.21,0,109.6,13.6,0.79,18.1
"2009-12-23 00:34:00",1526752,7.516,55.65,3.355,0.761,5.627,100.2873,0.033,1.399,64.35,0,109.6,13.6,0.79,17.7
"2009-12-23 00:34:30",1526753,7.743,55.47,3.658,0.632,5.866,100.2848,0.026,1.398,64.57,0,109.6,13.6,0.78,17.5
"2009-12-23 00:35:00",1526754,6.648,52.01,5.788,1.21,3.86,100.2805,0.016,1.193,64.58,0,109.6,13.61,0.77,14.0
"2009-12-23 00:35:30",1526755,6.652,55.63,5.581,1.121,4.72,100.2783,0.01,1.316,64.95,0,109.6,13.61,0.76,17.6
"2009-12-23 00:36:00",1526756,6.17,54.96,6.005,1.202,4.067,100.278,0.009,1.285,65.3,0,109.6,13.61,0.76,17.0
"2009-12-23 00:36:30",1526757,7.106,59.71,3.525,0.525,5.844,100.2766,0.006,1.384,65.72,0,109.6,13.61,0.76,21.7
"2009-12-23 00:37:00",1526758,6.674,55.52,5.724,1.028,4.999,100.2774,0.008,1.332,65.86,0,109.6,13.61,0.76,17.5
"2009-12-23 00:37:30",1526759,6.758,52.98,5.915,0.999,5.313,100.2768,0.006,1.385,65.9,0,109.6,13.61,0.76,15.0
"2009-12-23 00:38:00",1526760,5.877,45.14,5.796,1.087,2.716,100.2774,0.008,1.139,65.61,0,109.6,13.61,0.76,7.1
"2009-12-23 00:38:30",1526761,6.455,47.78,6.005,1.2,4.288,100.2791,0.012,1.322,65.72,0,109.6,13.61,0.76,9.8
"2009-12-23 00:39:00",1526762,7.214,49.53,5.354,0.856,5.099,100.2785,0.011,1.284,65.61,0,109.6,13.61,0.76,11.5
"2009-12-23 00:39:30",1526763,7.505,51,4.101,0.367,5.881,100.2805,0.016,1.338,65.73,0,109.6,13.61,0.77,13.0
"2009-12-23 00:40:00",1526764,6.705,49.58,5.41,1.144,4.509,100.2817,0.019,1.304,65.82,0,109.6,13.61,0.77,11.6
"2009-12-23 00:40:30",1526765,7.229,53.24,2.626,0.827,5.462,100.2771,0.007,1.326,66.03,0,109.6,13.61,0.76,15.2
"2009-12-23 00:41:00",1526766,6.385,48.05,6.243,1.218,4.22,100.2689,-0.014,1.228,66.14,0,109.6,13.61,0.74,10.0
"2009-12-23 00:41:30",1526767,6.564,49.21,5.297,1.16,4.614,100.2635,-0.028,1.25,66.27,0,109.6,13.61,0.72,11.2
"2009-12-23 00:42:00",1526768,6.588,47.09,5.431,1.109,4.281,100.2568,-0.045,1.258,66.4,0,109.6,13.61,0.71,9.1
"2009-12-23 00:42:30",1526769,6.856,48.36,4.696,0.919,5.502,100.252,-0.057,1.272,66.49,0,109.6,13.61,0.69,10.4
"2009-12-23 00:43:00",1526770,6.945,47.62,4.892,0.924,5.26,100.2494,-0.064,1.263,66.56,0,109.6,13.61,0.69,9.6
"2009-12-23 00:43:30",1526771,7.046,48.31,4.192,0.84,5.397,100.2517,-0.058,1.261,66.64,0,109.7,13.61,0.69,10.3
"2009-12-23 00:44:00",1526772,6.992,47.69,4.707,0.831,5.49,100.2517,-0.058,1.256,66.73,0,109.6,13.61,0.69,9.7
"2009-12-23 00:44:30",1526773,6.764,47.21,5.614,1.041,4.555,100.2508,-0.06,1.178,66.78,0,109.6,13.61,0.69,9.2
"2009-12-23 00:45:00",1526774,6.24,46.64,6.362,1.167,3.72,100.2505,-0.061,1.165,66.87,0,109.6,13.61,0.69,8.6
"2009-12-23 00:45:30",1526775,6.516,49.96,5.679,1.057,4.855,100.252,-0.057,1.205,67.03,0,109.6,13.61,0.69,12.0
"2009-12-23 00:46:00",1526776,6.858,50.76,4.721,0.861,5.27,100.2477,-0.068,1.228,67.17,0,109.6,13.61,0.68,12.8
"2009-12-23 00:46:30",1526777,6.728,49.24,5.237,1.015,5.071,100.2421,-0.082,1.204,67.27,0,109.6,13.61,0.67,11.2
"2009-12-23 00:47:00",1526778,6.637,45.42,6.259,1.054,4.71,100.2378,-0.093,1.214,67.36,0,109.6,13.6,0.66,7.4
"2009-12-23 00:47:30",1526779,6.213,44.63,6.349,1.2,4.726,100.2341,-0.103,1.195,67.43,0,109.6,13.6,0.65,6.6
"2009-12-23 00:48:00",1526780,6.057,44.73,6.142,1.137,4.079,100.2341,-0.103,1.165,67.46,0,109.6,13.6,0.65,6.7
"2009-12-23 00:48:30",1526781,6.841,49.01,3.986,0.643,5.794,100.2307,-0.111,1.224,67.64,0,109.6,13.61,0.64,11.0
"2009-12-23 00:49:00",1526782,6.404,47.47,4.83,1.074,4.808,100.2265,-0.122,1.174,67.67,0,109.6,13.61,0.63,9.5
"2009-12-23 00:49:30",1526783,6.578,46.75,5.443,0.921,4.7,100.222,-0.134,1.176,67.81,0,109.6,13.6,0.62,8.8
"2009-12-23 00:50:00",1526784,5.355,40.98,5.772,1.089,2.843,100.2194,-0.14,1.044,67.83,0,109.6,13.61,0.61,3.0
"2009-12-23 00:50:30",1526785,6.135,44.46,5.886,1.139,4.319,100.2205,-0.137,1.152,68.07,0,109.6,13.61,0.61,6.5
"2009-12-23 00:51:00",1526786,6.249,45.12,6.035,1.039,4.53,100.2205,-0.137,1.137,68.18,0,109.6,13.61,0.61,7.1
"2009-12-23 00:51:30",1526787,6.444,47.86,4.609,0.909,5.179,100.2211,-0.136,1.178,68.34,0,109.6,13.61,0.62,9.9
"2009-12-23 00:52:00",1526788,6.018,45.39,5.734,1.082,4.853,100.2214,-0.135,1.127,68.44,0,109.5,13.61,0.62,7.4
"2009-12-23 00:52:30",1526789,5.901,45.71,5.867,1.092,4.385,100.2217,-0.134,1.097,68.51,0,109.6,13.61,0.62,7.7
"2009-12-23 00:53:00",1526790,4.775,40.39,5.166,0.967,2.652,100.222,-0.134,1.077,68.56,0,109.6,13.61,0.62,2.4
"2009-12-23 00:53:30",1526791,5.858,45.91,6.556,1.196,4.466,100.222,-0.134,1.128,68.68,0,109.6,13.61,0.62,7.9
"2009-12-23 00:54:00",1526792,6.28,47.52,5.313,1.043,4.918,100.2239,-0.129,1.108,68.77,0,109.6,13.61,0.62,9.5
"2009-12-23 00:54:30",1526793,6.752,48.13,3.447,0.739,5.634,100.224,-0.129,1.174,68.9,0,109.6,13.62,0.62,10.1
"2009-12-23 00:55:00",1526794,6.396,45.57,5.578,0.972,5.048,100.2152,-0.151,1.088,68.91,0,109.6,13.61,0.60,7.6
"2009-12-23 00:55:30",1526795,5.866,43.2,5.87,1.147,3.808,100.2047,-0.178,1.099,68.99,0,109.6,13.61,0.57,5.2
"2009-12-23 00:56:00",1526796,4.704,40.97,5.302,0.926,2.251,100.199,-0.192,1.007,69.03,0,109.6,13.61,0.56,3.0
"2009-12-23 00:56:30",1526797,5.841,47.45,5.862,1.161,4.242,100.1936,-0.206,1.096,69.21,0,109.6,13.61,0.55,9.5
"2009-12-23 00:57:00",1526798,5.983,49.23,5.547,1.102,4.545,100.1939,-0.205,1.126,69.34,0,109.6,13.61,0.55,11.2
"2009-12-23 00:57:30",1526799,6.16,48.14,5.832,1.035,4.858,100.1911,-0.212,1.134,69.48,0,109.6,13.62,0.54,10.1
"2009-12-23 00:58:00",1526800,5.838,45.17,5.78,1.089,4.627,100.192,-0.21,1.088,69.56,0,109.6,13.61,0.54,7.2
"2009-12-23 00:58:30",1526801,5.629,44.17,5.623,1.171,4.108,100.1934,-0.207,1.062,69.59,0,109.6,13.61,0.54,6.2
"2009-12-23 00:59:00",1526802,5.129,40.42,5.861,1.201,2.941,100.1925,-0.209,0.925,69.53,0,109.6,13.61,0.54,2.4
"2009-12-23 00:59:30",1526803,5.369,42.05,6.474,1.187,4.435,100.1908,-0.213,1.032,69.66,0,109.6,13.61,0.54,4.0
"2009-12-23 01:00:00",1526804,5.602,41.94,6.22,1.016,4.827,100.1939,-0.205,1.148,69.8,0,109.6,13.62,0.55,3.9
"2009-12-23 01:00:30",1526805,4.855,39.73,5.664,1.066,4.388,100.1911,-0.212,1.046,69.68,0,109.6,13.62,0.54,1.7
"2009-12-23 01:01:00",1526806,5.004,39.44,5.192,1.105,4.336,100.1939,-0.205,1.07,69.64,0,109.6,13.62,0.55,1.4
"2009-12-23 01:01:30",1526807,4.732,37.27,6.231,1.182,3.353,100.1939,-0.205,0.899,69.44,0,109.6,13.62,0.55,359.3
"2009-12-23 01:02:00",1526808,4.224,34.62,6.19,1.1,2.509,100.1939,-0.205,0.989,69.57,0,109.6,13.62,0.55,356.6
"2009-12-23 01:02:30",1526809,5.659,40.46,5.825,1.043,4.458,100.1891,-0.217,1.01,69.62,0,109.6,13.61,0.53,2.5
"2009-12-23 01:03:00",1526810,5.966,43.03,4.723,0.71,5.532,100.1809,-0.238,1.083,69.81,0,109.6,13.61,0.51,5.0
"2009-12-23 01:03:30",1526811,5.697,43.37,3.404,0.767,5.485,100.173,-0.259,1.085,69.9,0,109.6,13.61,0.49,5.4
"2009-12-23 01:04:00",1526812,4.607,35.99,6.475,1.171,3.431,100.1648,-0.279,0.955,69.89,0,109.6,13.61,0.47,358.0
"2009-12-23 01:04:30",1526813,3.849,32.9,6.571,1.18,2.288,100.1614,-0.288,0.788,69.8,0,109.6,13.61,0.46,354.9
"2009-12-23 01:05:00",1526814,4.178,32.49,6.893,1.232,3.318,100.1611,-0.289,0.971,70.05,0,109.6,13.61,0.46,354.5
"2009-12-23 01:05:30",1526815,4.929,33.06,6.501,1.132,4.186,100.1617,-0.287,0.982,70.07,0,109.6,13.61,0.46,355.1
"2009-12-23 01:06:00",1526816,5.442,40.71,5.355,0.629,5.522,100.1611,-0.289,1.054,70.19,0,109.5,13.61,0.46,2.7
"2009-12-23 01:06:30",1526817,5.278,37.91,3.609,0.769,5.142,100.1611,-0.289,1.029,70.16,0,109.6,13.61,0.46,359.9
"2009-12-23 01:07:00",1526818,4.317,33.77,6.703,1.226,3.122,100.1614,-0.288,0.894,70.11,0,109.6,13.61,0.46,355.8
"2009-12-23 01:07:30",1526819,3.855,32.89,5.214,1.06,1.728,100.1617,-0.287,0.777,70.02,0,109.6,13.61,0.46,354.9
"2009-12-23 01:08:00",1526820,4.655,37.33,5.877,1.206,3.893,100.1614,-0.288,0.906,70.17,0,109.6,13.62,0.46,359.3
"2009-12-23 01:08:30",1526821,4.867,37.23,5.807,1.145,4.338,100.1617,-0.287,0.976,70.3,0,109.6,13.62,0.46,359.2
"2009-12-23 01:09:00",1526822,5.565,40.86,3.72,0.732,5.237,100.1617,-0.287,1.051,70.41,0,109.6,13.62,0.46,2.9
"2009-12-23 01:09:30",1526823,5.13,37.69,5.751,0.943,4.738,100.1619,-0.287,0.926,70.37,0,109.6,13.62,0.46,359.7
"2009-12-23 01:10:00",1526824,4.66,34.32,5.759,1.184,3.735,100.1622,-0.286,0.858,70.31,0,109.6,13.62,0.46,356.3
"2009-12-23 01:10:30",1526825,3.433,26.77,3.092,0.775,1.048,100.1619,-0.287,0.821,70.32,0,109.6,13.62,0.46,348.8
"2009-12-23 01:11:00",1526826,4.264,32.31,6.602,1.181,2.893,100.1625,-0.285,0.824,70.42,0,109.6,13.63,0.47,354.3
"2009-12-23 01:11:30",1526827,5.227,38.32,4.337,0.788,5.004,100.1577,-0.298,0.932,70.62,0,109.6,13.63,0.45,0.3
"2009-12-23 01:12:00",1526828,5.253,40.18,3.483,0.694,5.273,100.1512,-0.314,1.011,70.79,0,109.6,13.63,0.44,2.2
"2009-12-23 01:12:30",1526829,5.024,41.45,4.278,1.024,4.4,100.1481,-0.322,0.962,70.84,0,109.6,13.63,0.43,3.5
"2009-12-23 01:13:00",1526830,4.177,36.98,6.089,1.204,3.403,100.1447,-0.331,1.009,70.97,0,109.6,13.63,0.42,359.0
"2009-12-23 01:13:30",1526831,3.816,33.86,5.36,1.037,1.755,100.1475,-0.323,0.703,70.77,0,109.6,13.63,0.43,355.9
"2009-12-23 01:14:00",1526832,4.775,39.81,6.442,1.186,4.17,100.1382,-0.347,0.921,71.08,0,109.6,13.63,0.40,1.8
"2009-12-23 01:14:30",1526833,4.608,39.28,5.989,1.21,3.923,100.1328,-0.361,0.952,71.26,0,109.6,13.63,0.39,1.3
"2009-12-23 01:15:00",1526834,5.195,42.39,4.866,0.956,4.99,100.1322,-0.362,0.961,71.39,0,109.6,13.63,0.39,4.4
"2009-12-23 01:15:30",1526835,5.004,39.94,5.135,0.931,4.178,100.1308,-0.366,0.911,71.4,0,109.6,13.63,0.38,1.9
"2009-12-23 01:16:00",1526836,4.541,38.27,6.71,1.231,3.324,100.1305,-0.367,0.792,71.42,0,109.6,13.63,0.38,0.3
"2009-12-23 01:16:30",1526837,4.193,35.57,6.023,1.22,2.642,100.1317,-0.364,0.824,71.49,0,109.6,13.63,0.39,357.6
"2009-12-23 01:17:00",1526838,3.81,33.04,4.982,1.016,2.04,100.1336,-0.359,0.826,71.61,0,109.6,13.63,0.39,355.0
"2009-12-23 01:17:30",1526839,4.675,36.93,6.178,1.167,3.586,100.1308,-0.366,0.825,71.65,0,109.6,13.63,0.38,358.9
"2009-12-23 01:18:00",1526840,4.945,39.95,4.487,0.945,4.885,100.12,-0.394,0.899,71.82,0,109.6,13.63,0.36,2.0
"2009-12-23 01:18:30",1526841,4.617,39.47,5.36,1.131,4.15,100.1167,-0.402,0.833,71.83,0,109.6,13.62,0.35,1.5
"2009-12-23 01:19:00",1526842,3.748,34.91,6.197,1.181,2.637,100.1127,-0.412,0.775,71.83,0,109.6,13.62,0.34,356.9
"2009-12-23 01:19:30",1526843,4.081,35.13,6.247,1.189,2.798,100.1096,-0.42,0.765,71.91,0,109.6,13.62,0.33,357.1
"2009-12-23 01:20:00",1526844,3.005,30.39,4.07,0.636,1.479,100.1042,-0.434,0.708,71.89,0,109.6,13.62,0.32,352.4
"2009-12-23 01:20:30",1526845,4.371,38.28,5.946,1.081,4.082,100.1042,-0.434,0.826,72.06,0,109.6,13.62,0.32,0.3
"2009-12-23 01:21:00",1526846,4.487,40.16,3.781,0.746,5.054,100.1025,-0.438,0.94,72.25,0,109.6,13.62,0.31,2.2
"2009-12-23 01:21:30",1526847,3.717,35.27,6.271,1.179,3.303,100.1014,-0.441,0.8,72.16,0,109.6,13.62,0.31,357.3
"2009-12-23 01:22:00",1526848,2.51,29.12,3.947,0.742,1.194,100.1022,-0.439,0.672,72.1,0,109.6,13.63,0.31,351.1
"2009-12-23 01:22:30",1526849,3.465,33.49,6.721,1.26,2.524,100.1014,-0.441,0.725,72.16,0,109.6,13.62,0.31,355.5
"2009-12-23 01:23:00",1526850,3.231,32.18,6.179,1.172,2.417,100.1019,-0.44,0.76,72.21,0,109.5,13.63,0.31,354.2
"2009-12-23 01:23:30",1526851,4.169,36.2,6.211,1.119,4.25,100.1011,-0.442,0.838,72.27,0,109.6,13.63,0.31,358.2
"2009-12-23 01:24:00",1526852,4.634,39.79,3.451,0.789,5.139,100.1017,-0.44,0.904,72.33,0,109.6,13.63,0.31,1.8
"2009-12-23 01:24:30",1526853,4.057,36.62,5.075,1.127,4.14,100.1008,-0.443,0.852,72.28,0,109.6,13.63,0.31,358.6
"2009-12-23 01:25:00",1526854,2.755,31.6,5.951,1.05,2.055,100.1019,-0.44,0.694,72.13,0,109.6,13.63,0.31,353.6
"2009-12-23 01:25:30",1526855,2.906,31.48,5.875,1.085,1.519,100.1019,-0.44,0.604,72.06,0,109.5,13.63,0.31,353.5
"2009-12-23 01:26:00",1526856,3.382,34.41,6.521,1.191,2.829,100.1017,-0.44,0.737,72.21,0,109.6,13.63,0.31,356.4
"2009-12-23 01:26:30",1526857,3.933,37.58,6.035,1.081,3.881,100.1017,-0.44,0.78,72.3,0,109.6,13.63,0.31,359.6
"2009-12-23 01:27:00",1526858,4.311,40.51,2.312,0.853,5.111,100.1022,-0.439,0.902,72.42,0,109.6,13.63,0.31,2.5
"2009-12-23 01:27:30",1526859,4.161,38.29,5.549,1.062,4.406,100.1019,-0.44,0.857,72.35,0,109.6,13.63,0.31,0.3
"2009-12-23 01:28:00",1526860,2.532,29.1,4.099,0.698,0.997,100.1022,-0.439,0.664,72.15,0,109.6,13.63,0.31,351.1
"2009-12-23 01:28:30",1526861,3.149,33.09,6.481,1.187,2.585,100.1019,-0.44,0.696,72.14,0,109.5,13.63,0.31,355.1
"2009-12-23 01:29:00",1526862,2.876,33.67,6.328,1.126,2.846,100.1031,-0.437,0.752,72.17,0,109.6,13.63,0.31,355.7
"2009-12-23 01:29:30",1526863,2.963,33.32,6.307,1.194,2.468,100.1031,-0.437,0.692,72.06,0,109.5,13.63,0.31,355.3
"2009-12-23 01:30:00",1526864,4.077,42.02,3.753,0.757,5.323,100.1053,-0.431,0.89,72.19,0,109.6,13.64,0.32,4.0
"2009-12-23 01:30:30",1526865,3.708,39.02,5.52,1.113,4.566,100.1059,-0.43,0.918,72.02,0,109.6,13.64,0.32,1.0
"2009-12-23 01:31:00",1526866,2.224,31.75,5.152,1.057,1.348,100.1076,-0.425,0.649,71.74,0,109.6,13.63,0.33,353.8
"2009-12-23 01:31:30",1526867,1.671,30.18,2.928,0.114,0.73,100.1113,-0.416,0.721,71.76,0,109.6,13.63,0.33,352.2
"2009-12-23 01:32:00",1526868,3.038,39,5.425,1.178,2.512,100.1167,-0.402,0.653,71.61,0,109.6,13.63,0.35,1.0
"2009-12-23 01:32:30",1526869,1.981,41.46,3.278,0.072,0.806,100.1186,-0.397,0.743,71.57,0,109.6,13.67,0.35,3.5
"2009-12-23 01:33:00",1526870,4.068,54.91,5.322,0.939,5.223,100.1203,-0.393,0.874,71.5,0,109.5,13.64,0.36,16.9
"2009-12-23 01:33:30",1526871,3.96,54.28,5.238,0.925,5.189,100.1274,-0.375,0.883,71.34,0,109.6,13.64,0.38,16.3
"2009-12-23 01:34:00",1526872,3.275,55,6.983,1.147,4.29,100.1334,-0.36,0.852,71.12,0,109.6,13.64,0.39,17.0
"2009-12-23 01:34:30",1526873,2.629,47.05,5.6,1.127,1.924,100.1356,-0.354,0.64,70.65,0,109.6,13.64,0.40,9.0
"2009-12-23 01:35:00",1526874,2.696,35.09,7.019,1.074,2.723,100.1359,-0.353,0.783,70.55,0,109.6,13.63,0.40,357.1
"2009-12-23 01:35:30",1526875,1.687,34.71,3.958,0.189,0.766,100.1359,-0.353,0.638,70.53,0,109.5,13.67,0.40,356.7
"2009-12-23 01:36:00",1526876,2.364,49.8,6.304,1.117,2.675,100.1359,-0.353,0.791,70.75,0,109.6,13.63,0.40,11.8
"2009-12-23 01:36:30",1526877,4.029,54.7,3.901,0.653,5.812,100.1359,-0.353,0.967,70.7,0,109.5,13.63,0.40,16.7
"2009-12-23 01:37:00",1526878,3.393,49.6,6.371,1.134,4.867,100.1362,-0.352,0.944,70.27,0,109.6,13.63,0.40,11.6
"2009-12-23 01:37:30",1526879,2.343,42.12,5.779,1.008,2.71,100.1396,-0.344,0.841,69.74,0,109.6,13.63,0.41,4.1
"2009-12-23 01:38:00",1526880,2.349,43.87,4.758,1.14,1.964,100.1512,-0.314,0.723,69.16,0,109.5,13.63,0.44,5.9
"2009-12-23 01:38:30",1526881,2.378,47.49,7.76,1.251,2.935,100.1518,-0.313,0.816,69.02,0,109.6,13.63,0.44,9.5
"2009-12-23 01:39:00",1526882,1.896,43,5.128,1.027,2.235,100.1611,-0.289,0.842,69.07,0,109.6,13.63,0.46,5.0
"2009-12-23 01:39:30",1526883,3.484,46.78,6.076,1.079,4.758,100.1693,-0.268,0.865,69.26,0,109.6,13.64,0.48,8.8
"2009-12-23 01:40:00",1526884,3.209,40.46,9.4,1.097,4.964,100.1699,-0.266,0.968,69.15,0,109.6,13.64,0.48,2.5
"2009-12-23 01:40:30",1526885,2.33,26.01,8.29,1.199,2.949,100.1699,-0.266,0.83,68.79,0,109.6,13.64,0.48,348.0
"2009-12-23 01:41:00",1526886,1.662,24.65,8.76,0.924,1.201,100.1699,-0.266,0.802,68.84,0,109.6,13.64,0.48,346.6
"2009-12-23 01:41:30",1526887,2.388,29.84,9.41,1.157,2.701,100.1696,-0.267,0.834,69.01,0,109.6,13.64,0.48,351.8
"2009-12-23 01:42:00",1526888,1.566,22.47,7.676,0.753,1.199,100.1699,-0.266,0.762,69.09,0,109.6,13.64,0.48,344.5
"2009-12-23 01:42:30",1526889,2.048,28.02,7.23,1.109,1.957,100.173,-0.258,0.841,69.21,0,109.6,13.64,0.49,350.0
"2009-12-23 01:43:00",1526890,2.998,31.27,11.78,1.063,4.327,100.1821,-0.235,0.998,69.33,0,109.6,13.64,0.52,353.3
"2009-12-23 01:43:30",1526891,2.717,26.62,8.45,1.172,3.094,100.1903,-0.214,0.854,69.14,0,109.6,13.64,0.54,348.6
"2009-12-23 01:44:00",1526892,1.631,16.12,8.48,1.017,1.942,100.1991,-0.192,0.925,69.28,0,109.6,13.64,0.56,338.1
"2009-12-23 01:44:30",1526893,1.992,21.55,13.25,1.406,2.361,100.2039,-0.18,0.891,69.33,0,109.6,13.64,0.57,343.5
"2009-12-23 01:45:00",1526894,1.323,15.14,9.31,1.071,1.792,100.2039,-0.18,0.975,69.41,0,109.6,13.64,0.57,337.1
"2009-12-23 01:45:30",1526895,2.011,15.51,8.98,1.222,2.273,100.2039,-0.18,0.86,69.38,0,109.5,13.64,0.57,337.5
"2009-12-23 01:46:00",1526896,2.588,22.99,7.148,1.244,2.593,100.2039,-0.18,0.986,69.63,0,109.5,13.64,0.57,345.0
"2009-12-23 01:46:30",1526897,3.691,16.73,5.733,0.933,4.147,100.2039,-0.18,1.001,69.73,0,109.6,13.64,0.57,338.7
"2009-12-23 01:47:00",1526898,2.261,14.04,6.551,0.952,1.973,100.2039,-0.18,0.952,69.74,0,109.6,13.64,0.57,336.0
"2009-12-23 01:47:30",1526899,3.255,17.32,7.112,1.077,3.766,100.2039,-0.18,1.111,69.9,0,109.6,13.64,0.57,339.3
"2009-12-23 01:48:00",1526900,2.661,25.36,7.212,1.222,3.142,100.2039,-0.18,1.093,69.88,0,109.6,13.64,0.57,347.4